Back to catalog

CZ-6A DEB

AlivePO
NORAD 61120·DEBRIS·🇨🇳 China

Launched Aug 6, 2024 from Taiyuan Satellite Launch Center

Loading…

Next Passes (next 24 hours)

TLE

FreshSource: Space-Track

Epoch: Sep 14, 2026, 07:04 UTC

1 61120U 24140PN  26257.29476485  .00001185  00000-0  61428-3 0  9997
2 61120  88.9846 264.8612 0087700 301.0931  58.1671 14.12330036106595

Track CZ-6A DEB in real time with AllMySat

Download on the App Store